Regional Weather Roundup
Issued by NWS

Home | Current Version | Previous Version | Graphics & Text | Print | Product List | Glossary On
Versions: 1 2 3 4 5 6 7 8 9 10 11 12 13 14 15 16 17 18 19 20 21 22 23 24 25 26 27
000
ASUS45 KTFX 280310
RWRMT
MONTANA REGIONAL WEATHER ROUNDUP
NATIONAL WEATHER SERVICE GREAT FALLS MT
900 PM MDT SAT AUG 27 2016

NOTE: "FAIR" INDICATES FEW OR NO CLOUDS BELOW 12000 FEET WITH NO
SIGNIFICANT WEATHER AND/OR OBSTRUCTIONS TO VISIBILITY.

MTZ001>007-043-280400-
WEST OF THE DIVIDE

CITY           SKY/WX    TMP DP  RH WIND       PRES   REMARKS
KALISPELL      CLOUDY    78  39  24 SW14G22   29.75R
MISSOULA       MOCLDY    78  38  23 W9        29.82R
BUTTE          CLOUDY    71  30  21 CALM      29.96R
MULLAN PASS    MOCLDY    60  36  40 SW10G22   29.96S
DEER LODGE       N/A     72  34  25 NW6       29.91R
EUREKA           N/A     73  43  33 S3        29.72R
HAMILTON         N/A     81  36  19 SW6       29.85R
LIBBY            N/A     77  43  29 CALM      29.73S
PLAINS           N/A     78  41  26 SW8       29.81R
RONAN            N/A     75  40  28 S7        29.86S
$$

MTZ008-052>055-280400-
SOUTHWEST MONTANA

CITY           SKY/WX    TMP DP  RH WIND       PRES   REMARKS
BOZEMAN        PTCLDY    73  32  22 SW5       29.89R
DILLON         CLEAR     71  25  17 S9        29.93R
W YELLOWSTONE  CLOUDY    63  27  25 S10G17    30.11R
ENNIS          CLEAR     72  25  17 SE15      30.01R
THREE FORKS      N/A     65 -40   1 CALM      29.87R
TWIN BRIDGES     N/A     70  28  21 SE5       29.92R
$$

MTZ009-010-012-014-046-048-049-054-280400-
EAST SLOPES AND CENTRAL MONTANA

CITY           SKY/WX    TMP DP  RH WIND       PRES   REMARKS
CUT BANK       MOCLDY    70  40  33 W14       29.76R
GREAT FALLS    CLOUDY    72  39  30 SW9       29.77R
MALMSTROM AFB  CLOUDY    71  40  33 MISG      29.77R
HELENA         CLOUDY    78  34  20 W9        29.84R
CHOTEAU          N/A     73  36  25 W9        29.80R
CONRAD           N/A     67  43  41 SE3       29.81R
$$

MTZ011-013-016-021-045-047-050-051-280400-
NORTH CENTRAL MONTANA

CITY           SKY/WX    TMP DP  RH WIND       PRES   REMARKS
HAVRE          MOCLDY    66  42  41 S9        29.70R
LEWISTOWN      CLOUDY    65  42  43 S7        29.84R
N BAR RANCH      N/A     66  34  30 CALM      29.89R
CHINOOK          N/A     70  46  43 CALM      29.69R
$$

MTZ017>020-022>027-061-062-280400-
NORTHEAST MONTANA

CITY           SKY/WX    TMP DP  RH WIND       PRES   REMARKS
GLASGOW        CLOUDY    68  42  38 SE12      29.73R
JORDAN           N/A     71  41  33 CALM      29.76R
SIDNEY         CLEAR     69  50  50 S6        29.79R
WOLF POINT     CLOUDY    68  42  38 NE3       29.75R
POPLAR           N/A     73  41  31 CALM      29.76R
SCOBEY           N/A     61  39  44 S5        29.78R
$$

MTZ028>42-056>058-280400-
SOUTHCENTRAL AND SOUTHEAST MONTANA

CITY           SKY/WX    TMP DP  RH WIND       PRES   REMARKS
BAKER          CLEAR     65  50  58 S12       29.87R
BILLINGS       MOCLDY    73  37  27 CALM      29.83R
LIVINGSTON     PTCLDY    77  28  16 SW24G31   29.88R
MILES CITY     PTCLDY    75  36  24 SE7       29.81R
FORSYTH          N/A     70  39  32 SE5       29.79R
LAUREL           N/A     72  36  26 CALM      29.85R
ROUNDUP          N/A     77  31  18 S6        29.76R
$$

REGIONAL REPORTS...DAKOTAS

CITY           SKY/WX    TMP DP  RH WIND       PRES   REMARKS
WILLISTON      PTCLDY    73  44  35 SE8       29.80R
MINOT          CLEAR     62  47  57 SE7       29.86R
DICKINSON      CLEAR     64  42  44 SE13      29.87R
CROSBY           N/A     64  46  52 SE10      29.84R
WATFORD CITY     N/A     66  46  48 SE10      29.83R
BISMARCK       CLEAR     63  52  67 SE5       29.90R
GRAND FORKS    CLEAR     58  56  93 S7        29.95R
FARGO          PTCLDY    61  57  87 E7        29.98R
BUFFALO SD       N/A     66  51  58 SE9       29.84R
RAPID CITY     MOCLDY    65  52  62 E7        29.92R
$$

REGIONAL REPORTS...WYOMING/IDAHO/WASHINGTON

CITY           SKY/WX    TMP DP  RH WIND       PRES   REMARKS
GILLETTE       CLEAR     61  38  42 CALM      29.95R
SHERIDAN       CLOUDY    61  45  55 CALM      29.90R
BUFFALO WY     CLEAR     65  35  33 W8        29.99R
CODY           CLOUDY    72  30  21 CALM      29.97R
YELLOWSTONE LA   N/A     50  30  46 CALM      30.23R
IDAHO FALLS    CLOUDY    71  35  26 S8        29.99R
SALMON         CLEAR     75  36  23 W8        29.85R
BOISE          CLEAR     84  29  13 CALM      29.84S
SPOKANE        CLOUDY    76  44  32 SW16      29.77R
$$

REGIONAL REPORTS...ALBERTA

CITY           SKY/WX    TMP DP  RH WIND       PRES   REMARKS
EDMONTON       CLEAR     57  54  88 SW7       29.66R
CALGARY        LGT RAIN  55  50  82 W20G26    29.76R
LETHBRIDGE     MOCLDY    68  46  45 W15       29.70R
MEDICINE HAT   MOCLDY    72  48  43 S10       29.61R
WATERTON GATE    N/A     66  43  42 SW10G18     N/A
MILK RIVER       N/A     73  41  31 W15         N/A
$$

REGIONAL REPORTS...SASKATCHEWAN

CITY           SKY/WX    TMP DP  RH WIND       PRES   REMARKS
SWIFT CURRENT  MOCLDY    68  50  52 S13       29.64R
REGINA         MOCLDY    68  43  40 SE17      29.74R
SASKATOON      CLOUDY    70  50  49 SE15G26   29.62S
CYPRESS HILLS    N/A     64  41  42 W6          N/A
VAL MARIE        N/A     70  41  35 S10         N/A
ROCKGLEN         N/A     66  43  42 S9          N/A
ASSINIBOIA       N/A     59  54  82 W7          N/A
$$




USA.gov is the U.S. government's official web portal to all federal, state and local government web resources and services.